Regional Weather Roundup
Issued by NWS

Home | Current Version | Previous Version | Text Only | Print | Product List | Glossary Off
Versions: 1 2 3 4 5 6 7 8 9 10 11 12 13 14 15 16 17 18 19 20 21 22 23 24 25 26 27 28 29 30 31 32 33 34 35 36 37 38 39 40 41 42 43 44 45 46 47 48 49 50

000
ASUS45 KPSR 260510
RWRAZ

ARIZONA HOURLY REGIONAL WEATHER ROUNDUP
NATIONAL WEATHER SERVICE PHOENIX AZ
1000 PM MST SUN SEP 25 2016

NOTE: FAIR INDICATES FEW OR NO CLOUDS BELOW 12,000 FEET WITH NO
SIGNIFICANT WEATHER AND/OR OBSTRUCTIONS TO VISIBILITY.

AZZ001>003-036-260600-
NORTHWEST ARIZONA

CITY           SKY/WX    TMP DP  RH WIND       PRES   REMARKS
BULLHEAD CITY  CLEAR     84  32  15 N10       30.02R
KINGMAN        CLEAR     71  31  22 VRB3      30.22R
$$

AZZ004>008-015-016-018-260600-
NORTH CENTRAL ARIZONA

CITY           SKY/WX    TMP DP  RH WIND       PRES   REMARKS
GRAND CANYON   CLEAR     57  30  35 NE16G23   30.41F
PRESCOTT       CLEAR     60  36  40 NW9       30.26S
FLAGSTAFF      CLEAR     56  29  35 NE16      30.40S
PAYSON         CLEAR     68  28  22 N18G26    30.26S
PAGE           CLEAR     64  35  34 NW5       30.32S
$$

AZZ009>014-017-260600-
NORTHEAST ARIZONA

CITY           SKY/WX    TMP DP  RH WIND       PRES   REMARKS
WINSLOW        MOCLDY    61  29  29 W9        30.29R
SAINT JOHNS    CLOUDY    64  32  30 E10       30.31R
WINDOW ROCK    MOCLDY    54  32  43 CALM      30.42R
SHOW LOW       MOCLDY    57  27  30 E6        30.34R
$$

AZZ023-260600-
GREATER PHOENIX AREA

CITY           SKY/WX    TMP DP  RH WIND       PRES   REMARKS
PHOENIX        PTCLDY    86  35  16 CALM      29.93S
BUCKEYE        PTCLDY    77  32  19 N8        29.95S
LUKE AFB       CLEAR     81  38  21 NW7       29.93R
DEER VALLEY    CLEAR     83  32  16 NE6       29.96R
SCOTTSDALE     CLEAR     85  32  15 VRB3      29.97S
MESA-GATEWAY   PTCLDY    79  34  19 E3        29.97R
$$

AZZ027-028-260600-
SOUTHWEST MARICOPA COUNTY AND PINAL COUNTY

CITY           SKY/WX    TMP DP  RH WIND       PRES   REMARKS
CASA GRANDE    CLEAR     79  30  17 N7        29.98R
GILA BEND      FAIR      77  34  21 SW2       29.91S
$$

AZZ503-504-507>509-260600-
SOUTHEAST ARIZONA

CITY           SKY/WX    TMP DP  RH WIND       PRES   REMARKS
TUCSON         CLEAR     74  41  30 S7        30.06R
DAVIS-MONTHAN  CLEAR     71  41  33 S5        30.06R
NOGALES        PTCLDY    61  46  57 N3        30.13R
SIERRA VISTA   PTCLDY    64  39  40 SE9       30.19R
DOUGLAS        PTCLDY    66  44  45 SE10      30.18R
SAFFORD        PTCLDY    76  42  29 E10       30.12R
$$

AZZ020-021-025-026-031-260600-
SOUTHWEST ARIZONA

CITY           SKY/WX    TMP DP  RH WIND       PRES   REMARKS
YUMA           CLEAR     84  35  17 N6        29.90R
$$

CAZ031-033-041-043-047-048-061-260600-
SOUTHERN CALIFORNIA

CITY           SKY/WX    TMP DP  RH WIND       PRES   REMARKS
DOWNTOWN L.A.  CLEAR     76  54  46 CALM      29.93R
L.A. AIRPORT   CLEAR     75  53  46 E3        29.93R
SAN DIEGO      CLEAR     75  61  61 VRB3      29.95R
BURBANK        CLEAR     88  25  10 SE7       29.95R
ONTARIO        CLEAR     84  20   9 CALM      29.98R
RIVERSIDE      CLEAR     83  25  12 S5        29.97S
PALM SPRINGS   CLEAR     84  35  17 W6        29.99S
EL CENTRO NAS  CLEAR     77  41  27 N7        29.92S
IMPERIAL       CLEAR     81  45  28 NW7       29.90S
BLYTHE         CLEAR     85  32  15 N14       29.93S
NEEDLES        CLEAR     86  32  14 N13       30.02R
$$

NVZ020-UTZ003-260600-
SOUTHERN NEVADA-UTAH

CITY           SKY/WX    TMP DP  RH WIND       PRES   REMARKS
LAS VEGAS      CLEAR     81  26  13 N16       30.15S
SALT LAKE CITY CLEAR     56  46  69 SE5       30.42F
$$

NMZ009-TXZ055-260600-
NEW MEXICO-WEST TEXAS

CITY           SKY/WX    TMP DP  RH WIND       PRES   REMARKS
ALBUQUERQUE    MOCLDY    62  35  36 SE16      30.39R
EL PASO        CLOUDY    68  39  34 E10       30.28R
$$


........................KEY........................
SKY/WX - SKY CONDITION/WEATHER
TMP    - TEMPERATURE IN FAHRENHEIT
DP     - DEW POINT IN FAHRENHEIT
RH     - RELATIVE HUMIDITY IN PERCENT
WIND   - DIRECTION AND SPEED IN MILES PER HOUR (MPH)
VRB    - VARIABLE WIND DIRECTION
PRES   - MEAN SEA LEVEL PRESSURE IN INCHES OF MERCURY
         F - FALLING PRESSURE   R - RISING PRESSURE
         S - STEADY PRESSURE
VSB    - VISIBILITY IN MILES
HX     - HEAT INDEX IN FAHRENHEIT
WCI    - WIND CHILL INDEX IN FAHRENHEIT
TC     - TEMPERATURE IN CELSIUS WHICH IS ALSO KNOWN AS
         TEMPERATURE IN CENTIGRADE
AFB    - AIR FORCE BASE
         LUKE AFB IS LUKE AIR FORCE BASE
         DAVIS-MONTHAN IS DAVIS-MONTHAN AIR FORCE BASE
NAS    - NAVAL AIR STATION
         EL CENTRO NAS IS EL CENTRO NAVAL AIR STATION
N/A    - NOT AVAILABLE




USA.gov is the U.S. government's official web portal to all federal, state and local government web resources and services.